Погода в Рохасе

Филиппины     11°35′00″N   122°45′05″E
темп.,
°C
ветер,
м/с
пор.,
м/с
влажн.,
%
обл.,
%
осадки,
мм/ч
давл.,
гПа
погр.,
м
19 мая, ср
ср1923:00+26всв3787100 2.4 1009325
02:00+26в3787100 3.9 1008436
05:00+25в3692100 5.6 1009287
08:00+28в3681100 7.8 1010597
11:00+31всв456597 0.2 10091215
14:00+31всв4564100 0.4 10071115
17:00+30св2370100 0.1 1007212
20:00+27в127990 0.2 100988
20 мая, чт
чт2023:00+26юв1184100 0.7 101024
02:00+25ю119052 3.6 100844
05:00+25ююз119099 0.4 100936
08:00+28с1179100 0.4 1010371
11:00+30ссв326985 0.3 1009938
14:00+30ссв337144 3.4 1007876
17:00+28ссв2379100 4.0 1007325
20:00+27св0183100 5.1 100996
21 мая, пт
пт2123:00+26ююв118882 3.8 101036
02:00+25ююз1189100 5.1 100836
05:00+25ююз2291100 0.1 100973
08:00+25ю249283 0.5 1010185
11:00+27ю3483100 0.4 1010340
14:00+28юз1277100 4.3 1008571
17:00+27зюз2282100 0.9 1008346
20:00+25ю1289100 1.1 101098
22 мая, сб
сб2223:00+25ююз2391100 0.0 101094
02:00+24ююз1291100 0.0 100977
05:00+24ююз1290100 0.0 100965
08:00+25ю2285100 0.0 1010146
11:00+28ю237388 0.0 1009492
14:00+30ююз226591 0.0 1007734
17:00+29юз12687 0.1 1007583
20:00+26ю12825 0.1 100861
23 мая, вс
вс2323:00+25ю228632 0.3 100963
02:00+24ююз228899 0.3 100759
05:00+24ю1188100 0.1 100839
08:00+28ю117399 0.1 1009383
11:00+31с216044 0.1 10081217
14:00+30с326664 1.9 1007932
17:00+29с227185 1.3 1007455
20:00+26в01805 1.8 1009112